Showing default

YUNHAI 2-1A, 43909

Orbit data source: Space-Track

YUNHAI 2-1A, 43909 is a payload satellite owned by CASC (CN) in LEO that was launched on Sat, 29 Dec 2018 UTC via a CHANG ZHENG 2D/YZ-3 launch vehicle from the Jiuquan Satellite Launch Center, China (JSC). Payload-class satellites include a variety of spacecraft equipped with specific instruments for various scientific and technological missions. These include communications satellites like Starlink; space stations such as the ISS; scientific satellites like the Hubble; Earth observation satellites from companies like Planet Labs, Umbra, and HawkEye 360; GPS; miniature CubeSats for education and research; and military/defense satellites.

Loading next visibility...
Identifier
43909, 2018-112A
Orbit
LEO
Country
Flag of CNCN / PRC
Related business
Manufacturer
DFH Shenzhen
Mission
Operational Defense Meteo Radio Occ.
Bus & Motor
YH-2, Unknown motor
Mass
~100 kg wet, ~100 kg dry
Launch date (UTC)
2018-12-29 (7 years ago)
Launch vehicle
CHANG ZHENG 2D/YZ-3
Launch site
Jiuquan Satellite Launch Center, China (JSC)
Object type
Payload
Rocket body
Debris
Shape & HBR
Box + 2 Pan, 0.5 m
Radar Cross Section
0.166 m², Large (>1 m²)

Expand to show TLE details & history
Last TLE update: 21 hours ago

TLE from 21 hours ago
0 YUNHAI 2-1A
1 43909U 18112A   26172.57876118 -.00000185  00000-0 -91203-5 0  9995
2 43909  50.0108  25.5661 0000101  90.3346 269.7581 14.29022419391716
Epoch: 2026-06-21T13:53Z
TLE epoch observation values (Epoch: 2026-06-21T13:53:24.965Z)
Latitude
-0.00003°
Longitude
-92.56496°
Altitude
795.533 km
Speed
7.457 km/s
True Right ascension
01h 42m 15s
True Declination
0° 00' 00"
Sunlit
Object was in daylight at epoch
Visualization orbit readout
Latitude
Unknown
Longitude
Unknown
Altitude
Unknown
Speed
Unknown
Apparent Right ascension
Unknown
Apparent Declination
Unknown
Sunlit
N/A
Visualization observer readout
Local Sidereal Time
21:36:23
Azimuth
Unknown
Elevation
Unknown
Doppler factor
Unknown
Orbital elements
Apogee altitude
795.811 km
Perigee altitude
795.666 km
Semi-major axis
7,173.875 km
Eccentricity
0.00001
Inclination
50.0108°
RAAN
25.5661°
Arg. of periapsis
90.3346°
True anomaly
269.75694°
Mean anomaly
269.7581°
Eccentric anomaly
269.75752°
Mean motion
3.57201 °/min
Orbital period
100.78 mins
BSTAR
-0.0000091203
Loading maneuver chart data...
Computing Atmospheric mass density...
Loading historical data...
Loading historical data...
Loading historical data...
Loading historical data...
Loading historical data...
Loading historical data...
Loading historical data...

Documentation

Showing up to 5 results
|